NILESAT 201

Last updated on Tue Sep 22 2026 00:03:11 GMT+0000 (Coordinated Universal Time)

1 36830U 10037A 26264.34511670 -.00000061 00000+0 00000+0 0 9994 2 36830 0.0169 154.8902 0005686 26.6543 295.9387 1.00272422 59342
UTC large
Height (km)
Speed (km/s)
/
Latitude / Longitude
Inclination (degrees)
Orbital Period (minutes)
Azimuth
Elevation
Range (km)
Doppler Factor

Next 0 passes for location: London (51.5072 / 0.1276)

No passes found over London.
NILESAT 201